Flag for U.S.A. Weather past 2 weeks in Arden-Arcade, California, U.S.A.

Now
64 °F

Scattered clouds.


Feels Like: 64 °F
Forecast: 36 / 64 °F
Wind: 10 mph from Northwest

Location: Mather Field

Current Time: Mar 3, 2015 at 7:08:12 PM

Latest Report: Mar 3, 2015 at 4:45 PM


Visibility: 10 mi

Pressure: 29.94 "Hg

Humidity: 34%

Dew point: 36 °F

Location of Arden-ArcadeLocation

Historic Weather in Arden-Arcade — Graph

°F

Arden-Arcade temperature yesterday

Maximum temperature yesterday: 63 °F (at 2:46 PM)
Minimum temperature yesterday: 41 °F (at 10:55 PM)
Average temperature yesterday: 52 °F

Past Weeks' High & Low Weather Summary

 TemperatureHumidityPressure
High72 °F (Feb 16, 4:45 PM)100% (Feb 17, 3:45 AM)30.36 "Hg (Feb 17, 3:45 AM)
Low30 °F (Feb 24, 4:52 AM)19% (Feb 22, 4:46 PM)29.66 "Hg (Feb 27, 4:50 PM)
Average52 °F75%30.01 "Hg
* Reported Feb 16 4:45 PM — Mar 3 4:45 PM, Arden-Arcade, Weather by CustomWeather, © 2015

Note: Actual official high and low records may vary slightly from our data, if they occured in-between our weather recording intervals... More about our weather records

Advertising

Arden-Arcade weather history for previous 24 hours

 ConditionsComfort  
Time TempWeatherWind HumidityBarometerVisibility
4:45 PM
Tue, Mar 3
64 °FScattered clouds.10 mph34%29.94 "Hg10 mi
2:54 PM64 °FSunny.13 mph43%29.96 "Hg10 mi
1:58 PM64 °FSunny.9 mph43%29.97 "Hg10 mi
12:45 PM63 °FSunny.13 mph52%30.00 "Hg10 mi
11:50 AM59 °FSunny.10 mph59%30.03 "Hg10 mi
10:46 AM57 °FSunny.10 mph59%30.04 "Hg10 mi
9:46 AM55 °FSunny.12 mph59%30.05 "Hg10 mi
8:46 AM48 °FSunny.7 mph71%30.06 "Hg10 mi
7:46 AM45 °FSunny.7 mph81%30.05 "Hg10 mi
6:46 AM39 °FSunny.3 mph87%30.02 "Hg10 mi
5:45 AM37 °FClear.No wind93%30.01 "Hg10 mi
4:49 AM37 °FClear.3 mph100%30.00 "Hg10 mi
3:45 AM43 °FClear.5 mph87%29.99 "Hg10 mi
2:55 AM43 °FClear.3 mph87%30.00 "Hg10 mi
10:55 PM
Mon, Mar 2
41 °FPassing clouds.3 mph93%29.98 "Hg10 mi
9:55 PM46 °FPassing clouds.3 mph82%29.97 "Hg10 mi
8:50 PM50 °FPassing clouds.3 mph71%29.94 "Hg10 mi
7:55 PM50 °FPassing clouds.No wind71%29.92 "Hg10 mi
Weather by CustomWeather, © 2015

See weather overviewHow to use our weather pages